STARLINK-36405, 67921

Orbit data source: Space-Track

STARLINK-36405, 67921 is a payload satellite owned by SpaceX/Seattle (US) in LEO that was launched on Sun, 22 Feb 2026 UTC via an FALCON 9 launch vehicle from the Air Force Eastern Test Range (AFETR). Payload-class satellites include a variety of spacecraft equipped with specific instruments for various scientific and technological missions. These include communications satellites like Starlink; space stations such as the ISS; scientific satellites like the Hubble; Earth observation satellites from companies like Planet Labs, Umbra, and HawkEye 360; GPS; miniature CubeSats for education and research; and military/defense satellites.

Loading next visibility...
Identifier
67921, 2026-036T
Orbit
LEO
Country
Flag of USUS
Related business
Manufacturer
SpaceX/Seattle
Mission
Operational spacecraft
Bus & Motor
STARLINK V2MO, Unknown motor
Mass
575 kg wet, ~530 kg dry
Launch date (UTC)
2026-02-22 (2 months ago)
Launch vehicle
FALCON 9
Launch site
Air Force Eastern Test Range (AFETR)
Object type
Payload
Rocket body
Debris
Shape & HBR
Unknown shape, 17.7 m
Radar Cross Section
RCS unknown

Expand to show TLE details & history
Last TLE update: 19 hours ago

TLE from 19 hours ago
0 STARLINK-36405
1 67921U 26036T   26103.57235605  .00011300  00000-0  41969-3 0  9994
2 67921  43.0051  48.5598 0001286 259.7827 100.2880 15.27566955  9050
Epoch: 2026-04-13T13:44Z
TLE epoch observation values (Epoch: 2026-04-13T13:44:11.562Z)
Latitude
-0.00001°
Longitude
0.75058°
Altitude
483.022 km
Speed
7.626 km/s
True Right ascension
03h 14m 14s
True Declination
0° 00' 00"
Sunlit
Object was in daylight at epoch
Visualization orbit readout
Latitude
Unknown
Longitude
Unknown
Altitude
Unknown
Speed
Unknown
Apparent Right ascension
Unknown
Apparent Declination
Unknown
Sunlit
N/A
Visualization observer readout
Local Sidereal Time
15:12:55
Azimuth
Unknown
Elevation
Unknown
Doppler factor
Unknown
Orbital elements
Apogee altitude
485.915 km
Perigee altitude
484.15 km
Semi-major axis
6,863.169 km
Eccentricity
0.00013
Inclination
43.0051°
RAAN
48.5598°
Arg. of periapsis
259.7827°
True anomaly
100.3025°
Mean anomaly
100.288°
Eccentric anomaly
100.29525°
Mean motion
3.8173 °/min
Orbital period
94.31 mins
BSTAR
0.00041969
Loading maneuver chart data...
Computing Atmospheric mass density...
Loading historical data...
Loading historical data...
Loading historical data...
Loading historical data...
Loading historical data...
Loading historical data...
Loading historical data...

Documentation

Showing up to 5 results
|